This is the latest recevied weather packets stored in our database for station/object KC9DNQ-3. If no packets are shown the sender has not sent any weather packets the latest 10 day(s).
| Time | Temp. | Humidity | Pressure | Rain* | Wind** | Luminosity | Snow |
|---|---|---|---|---|---|---|---|
| 1777823407 | 11.11° C | 71% | 1013.5 hPa | 0 mm | - | 135 W/m² | - |
| 1777823107 | 11.11° C | 71% | 1013.6 hPa | 0 mm | - | 100 W/m² | - |
| 1777822806 | 10.56° C | 71% | 1013.5 hPa | 0 mm | - | 90 W/m² | - |
| 1777822507 | 10.56° C | 71% | 1013.5 hPa | 0 mm | - | 83 W/m² | - |
| 1777822207 | 10.56° C | 71% | 1013.5 hPa | 0 mm | - | 100 W/m² | - |
| 1777821907 | 10.56° C | 71% | 1013.6 hPa | 0 mm | - | 79 W/m² | - |
| 1777821608 | 10.56° C | 73% | 1014 hPa | 0 mm | - | 79 W/m² | - |
| 1777821307 | 11.11° C | 71% | 1014 hPa | 0 mm | - | 74 W/m² | - |
| 1777821007 | 11.11° C | 68% | 1014 hPa | 0 mm | - | 69 W/m² | - |
| 1777820706 | 11.11° C | 70% | 1013.8 hPa | 0 mm | - | 77 W/m² | - |
| 1777820406 | 11.11° C | 66% | 1014.1 hPa | 0 mm | - | 70 W/m² | - |
| 1777820106 | 11.11° C | 63% | 1013.9 hPa | 0 mm | - | 47 W/m² | - |
| 1777819808 | 11.67° C | 61% | 1013.9 hPa | 0 mm | - | 58 W/m² | - |
| 1777819508 | 11.67° C | 60% | 1013.7 hPa | 0 mm | - | 54 W/m² | - |
| 1777819207 | 11.67° C | 61% | 1013.7 hPa | 0 mm | - | 84 W/m² | - |
| 1777818907 | 11.67° C | 61% | 1013.7 hPa | 0 mm | - | 98 W/m² | - |
| 1777818607 | 11.67° C | 60% | 1013.8 hPa | 0 mm | - | 105 W/m² | - |
| 1777818307 | 11.67° C | 60% | 1013.8 hPa | 0 mm | - | 114 W/m² | - |
| 1777818007 | 11.67° C | 60% | 1013.8 hPa | 0 mm | - | 144 W/m² | - |
| 1777817707 | 11.67° C | 60% | 1013.8 hPa | 0 mm | - | 139 W/m² | - |
| 1777817406 | 11.67° C | 60% | 1013.9 hPa | 0 mm | - | 132 W/m² | - |
| 1777817107 | 11.67° C | 59% | 1013.9 hPa | 0 mm | - | 162 W/m² | - |
| 1777816807 | 11.67° C | 59% | 1013.9 hPa | 0 mm | - | 167 W/m² | - |
| 1777816507 | 11.67° C | 59% | 1013.9 hPa | 0 mm | - | 174 W/m² | - |
| 1777816207 | 11.11° C | 61% | 1013.9 hPa | 0 mm | - | 167 W/m² | - |
* Rain latest hour (hover to see other rain measurements)
** Current wind speed in m/s (hover to see current wind gust speed)